This demonstration page uses our WeatherBlox Daily Observations layout. Learn more.

Left ArrowRight Arrow

41.12389, -100.76542

Hourly Observations for December 22, 2017

Temp ( °F °C ) Dew Point ( °F °C ) Humidity (%) Winds ( mph kmh ) Pressure ( in mb ) Visibility ( mi km ) Precip ( " mm )
12:53 am 00:53 Clear 3 -16.1 0 -17.8 87 87 NW 5 7 30.25 1024 10 16 0.00 0.00
1:53 am 01:53 Clear 5 -15 3 -16.1 91 91 Calm 30.23 1024 10 16 0.00 0.00
2:53 am 02:53 Clear 4 -15.6 2 -16.7 91 91 Calm 30.24 1024 10 16 0.00 0.00
3:53 am 03:53 Clear 3 -16.1 1 -17.2 91 91 NW 7 11 30.25 1025 10 16 0.00 0.00
4:53 am 04:53 Clear 5 -15 2 -16.7 87 87 NW 6 9 30.24 1024 10 16 0.00 0.00
5:53 am 05:53 Clear 4 -15.6 1 -17.2 88 88 Calm 30.23 1024 10 16 0.00 0.00
6:53 am 06:53 Clear 2 -16.7 -1 -18.3 88 88 Calm 30.23 1024 8 13 0.00 0.00
7:53 am 07:53 Clear 1 -17.2 -2 -18.9 87 87 Calm 30.25 1025 10 16 0.00 0.00
8:19 am 08:19 Partly Cloudy with Mist and Fog 2 -16.7 0 -17.8 91 91 Calm 30.42 1030 3 4 0.00 0.00
8:23 am 08:23 Partly Cloudy with Mist and Fog 2 -16.7 0 -17.8 91 91 Calm 30.42 1030 1 2 0.00 0.00
8:28 am 08:28 Mostly Cloudy with Mist and Fog 2 -16.7 -1 -18.3 88 88 Calm 30.42 1030 1 1 0.00 0.00
8:37 am 08:37 Partly Cloudy with Mist and Fog 3 -16.1 -1 -18.3 83 83 W 5 7 30.42 1030 1 2 0.00 0.00
8:40 am 08:40 Hazy 5 -15 0 -17.8 79 79 W 6 9 30.39 1029 3 4 0.00 0.00
8:53 am 08:53 Sunny 7 -13.9 4 -15.6 87 87 W 5 7 30.24 1024 10 16 0.00 0.00
9:53 am 09:53 Sunny 11 -11.7 7 -13.9 84 84 W 9 15 30.24 1024 10 16 0.00 0.00
10:53 am 10:53 Sunny 18 -7.8 10 -12.2 71 71 W 8 13 30.26 1025 10 16 0.00 0.00
11:53 am 11:53 Sunny 24 -4.4 15 -9.4 68 68 WNW 8 13 30.23 1024 10 16 0.00 0.00
12:53 pm 12:53 Sunny 30 -1.1 18 -7.8 61 61 W 6 9 30.20 1023 10 16 0.00 0.00
1:53 pm 13:53 Sunny 36 2.2 17 -8.3 46 46 NNW 12 19 30.18 1022 10 16 0.00 0.00
2:53 pm 14:53 Sunny 37 2.8 17 -8.3 44 44 NNW 14 22 30.17 1022 10 16 0.00 0.00
3:53 pm 15:53 Sunny 34 1.1 18 -7.8 52 52 N 12 19 30.19 1023 10 16 0.00 0.00
4:53 pm 16:53 Sunny 30 -1.1 20 -6.7 66 66 N 14 22 30.21 1023 10 16 0.00 0.00
5:53 pm 17:53 Clear 24 -4.4 17 -8.3 75 75 N 6 9 30.25 1024 10 16 0.00 0.00
6:53 pm 18:53 Clear 22 -5.6 17 -8.3 82 82 NNW 5 7 30.29 1026 10 16 0.00 0.00
7:53 pm 19:53 Mostly Cloudy 20 -6.7 17 -8.3 89 89 NW 3 6 30.30 1026 10 16 0.00 0.00
8:21 pm 20:21 Cloudy 22 -5.6 17 -8.3 82 82 N 3 6 30.33 1027 10 16 0.00 0.00
8:53 pm 20:53 Cloudy 22 -5.6 18 -7.8 85 85 N 10 17 30.30 1026 10 16 0.00 0.00
9:53 pm 21:53 Cloudy 22 -5.6 18 -7.8 85 85 NNE 9 15 30.30 1026 10 16 0.00 0.00
10:53 pm 22:53 Cloudy 23 -5 17 -8.3 78 78 NE 5 7 30.31 1026 10 16 0.00 0.00
11:33 pm 23:33 Cloudy 22 -5.6 17 -8.3 82 82 NE 7 11 30.36 1028 10 16 0.00 0.00
11:53 pm 23:53 Cloudy 22 -5.6 17 -8.3 82 82 NE 5 7 30.31 1026 10 16 0.00 0.00

Powered by AerisWeather